Precipitable_Water
0.25 0.25 0.26 0.27 0.28 0.29 0.30 0.31 0.31 0.31 0.31 0.31 0.31 0.31 0.30 0.30 0.30 0.29 0.29 0.28 0.28 0.28 0.28 0.27 0.26 0.25 0.25 0.24 0.24 0.24 0.24 0.25 0.25 0.26 0.27 0.27 0.27 0.27 0.27 0.26 0.26 0.26 0.25 0.24 0.23 0.23 0.23 0.22 0.21 0.22 0.22 0.21 0.19 0.18 0.18 0.18 0.18 0.18 0.18 0.17 0.16 0.15 0.14 0.15 0.15 0.16 0.15 0.14 0.15 0.14 0.13 0.13 0.12 0.12 0.12 0.13 0.13 0.17 0.16 0.15 0.16 0.18 0.24 0.30 0.37
0.25 0.25 0.26 0.27 0.28 0.30 0.30 0.31 0.31 0.31 0.31 0.31 0.31 0.31 0.31 0.31 0.30 0.30 0.29 0.29 0.28 0.28 0.28 0.28 0.27 0.26 0.25 0.25 0.25 0.25 0.24 0.24 0.24 0.25 0.26 0.26 0.27 0.27 0.26 0.26 0.26 0.26 0.26 0.25 0.24 0.23 0.22 0.22 0.22 0.21 0.22 0.21 0.20 0.19 0.19 0.19 0.19 0.18 0.18 0.17 0.16 0.15 0.14 0.15 0.15 0.15 0.14 0.13 0.12 0.12 0.11 0.11 0.12 0.13 0.13 0.14 0.16 0.17 0.15 0.14 0.14 0.15 0.19 0.26 0.33
0.24 0.25 0.26 0.27 0.29 0.30 0.31 0.31 0.31 0.31 0.31 0.31 0.31 0.31 0.31 0.31 0.31 0.31 0.30 0.29 0.29 0.29 0.29 0.28 0.28 0.27 0.27 0.26 0.25 0.24 0.24 0.24 0.24 0.25 0.25 0.25 0.26 0.27 0.26 0.26 0.26 0.26 0.26 0.26 0.24 0.23 0.23 0.22 0.22 0.22 0.22 0.22 0.21 0.20 0.19 0.18 0.18 0.18 0.17 0.16 0.15 0.16 0.15 0.15 0.15 0.15 0.14 0.14 0.14 0.12 0.09 0.09 0.10 0.11 0.13 0.14 0.14 0.14 0.13 0.13 0.13 0.13 0.15 0.20 0.26
0.24 0.25 0.26 0.28 0.29 0.29 0.29 0.30 0.30 0.31 0.31 0.31 0.31 0.32 0.32 0.32 0.32 0.31 0.31 0.30 0.30 0.29 0.29 0.30 0.29 0.28 0.27 0.26 0.26 0.24 0.23 0.23 0.23 0.24 0.25 0.25 0.25 0.25 0.25 0.26 0.26 0.26 0.26 0.26 0.25 0.24 0.23 0.23 0.22 0.22 0.22 0.22 0.21 0.20 0.19 0.18 0.18 0.18 0.17 0.17 0.16 0.15 0.14 0.14 0.15 0.16 0.16 0.14 0.11 0.10 0.10 0.10 0.08 0.09 0.11 0.12 0.13 0.11 0.11 0.12 0.12 0.12 0.13 0.16 0.22
0.25 0.26 0.27 0.28 0.28 0.29 0.29 0.31 0.32 0.32 0.31 0.31 0.32 0.32 0.33 0.33 0.33 0.32 0.32 0.31 0.31 0.31 0.31 0.31 0.30 0.28 0.27 0.26 0.26 0.25 0.24 0.23 0.23 0.23 0.23 0.24 0.24 0.25 0.25 0.25 0.26 0.26 0.26 0.25 0.25 0.25 0.24 0.24 0.23 0.22 0.22 0.21 0.21 0.20 0.19 0.18 0.18 0.18 0.17 0.17 0.16 0.15 0.14 0.14 0.14 0.15 0.15 0.16 0.14 0.12 0.11 0.10 0.09 0.10 0.10 0.10 0.11 0.11 0.11 0.12 0.12 0.12 0.12 0.14 0.18
0.26 0.27 0.27 0.28 0.28 0.29 0.30 0.31 0.32 0.32 0.32 0.33 0.33 0.33 0.32 0.32 0.32 0.31 0.31 0.31 0.31 0.31 0.32 0.31 0.30 0.28 0.26 0.25 0.24 0.23 0.23 0.23 0.22 0.23 0.23 0.23 0.23 0.24 0.25 0.25 0.25 0.25 0.25 0.25 0.25 0.25 0.24 0.24 0.24 0.23 0.22 0.22 0.21 0.20 0.20 0.19 0.18 0.17 0.17 0.17 0.16 0.16 0.15 0.14 0.13 0.14 0.15 0.15 0.15 0.15 0.13 0.11 0.10 0.11 0.10 0.08 0.10 0.11 0.11 0.12 0.11 0.12 0.12 0.13 0.16
0.27 0.28 0.29 0.28 0.29 0.30 0.31 0.31 0.32 0.31 0.32 0.33 0.33 0.33 0.33 0.32 0.31 0.31 0.31 0.31 0.31 0.31 0.31 0.30 0.28 0.28 0.27 0.26 0.25 0.24 0.23 0.23 0.23 0.23 0.23 0.23 0.23 0.24 0.25 0.25 0.25 0.25 0.25 0.25 0.24 0.24 0.25 0.24 0.24 0.24 0.23 0.22 0.22 0.21 0.20 0.19 0.18 0.17 0.17 0.17 0.16 0.16 0.16 0.14 0.13 0.13 0.14 0.15 0.15 0.15 0.15 0.15 0.15 0.12 0.09 0.10 0.08 0.10 0.11 0.11 0.11 0.12 0.12 0.12 0.15
0.27 0.28 0.29 0.30 0.30 0.30 0.30 0.31 0.32 0.32 0.33 0.34 0.34 0.34 0.33 0.32 0.31 0.31 0.31 0.31 0.32 0.31 0.30 0.28 0.27 0.26 0.26 0.25 0.25 0.24 0.24 0.24 0.24 0.23 0.23 0.23 0.23 0.24 0.24 0.25 0.25 0.25 0.25 0.24 0.23 0.23 0.24 0.24 0.25 0.24 0.23 0.23 0.22 0.21 0.20 0.19 0.19 0.18 0.18 0.17 0.17 0.17 0.15 0.14 0.14 0.14 0.13 0.13 0.15 0.14 0.15 0.15 0.15 0.14 0.14 0.11 0.09 0.08 0.08 0.11 0.11 0.12 0.12 0.13 0.15
0.28 0.28 0.29 0.30 0.30 0.31 0.31 0.32 0.33 0.34 0.34 0.34 0.35 0.35 0.35 0.33 0.31 0.31 0.31 0.31 0.31 0.30 0.28 0.28 0.27 0.26 0.25 0.25 0.24 0.24 0.25 0.24 0.25 0.24 0.23 0.22 0.22 0.23 0.23 0.24 0.24 0.24 0.24 0.24 0.23 0.22 0.23 0.23 0.24 0.24 0.24 0.23 0.22 0.21 0.21 0.20 0.19 0.18 0.18 0.18 0.17 0.17 0.16 0.15 0.14 0.14 0.14 0.14 0.14 0.14 0.14 0.14 0.14 0.14 0.13 0.12 0.10 0.09 0.08 0.09 0.09 0.11 0.11 0.11 0.12
0.29 0.30 0.31 0.31 0.31 0.32 0.33 0.34 0.34 0.35 0.35 0.36 0.37 0.36 0.35 0.34 0.32 0.32 0.31 0.31 0.29 0.28 0.27 0.26 0.26 0.26 0.25 0.25 0.24 0.24 0.24 0.24 0.24 0.24 0.24 0.23 0.23 0.23 0.23 0.23 0.23 0.23 0.23 0.23 0.23 0.22 0.21 0.22 0.23 0.24 0.23 0.23 0.22 0.21 0.21 0.20 0.19 0.18 0.18 0.18 0.18 0.16 0.16 0.15 0.15 0.14 0.15 0.15 0.15 0.14 0.13 0.13 0.13 0.13 0.13 0.12 0.12 0.11 0.09 0.08 0.09 0.09 0.09 0.11 0.13
0.29 0.31 0.31 0.32 0.33 0.33 0.34 0.34 0.34 0.36 0.36 0.37 0.37 0.36 0.35 0.34 0.33 0.32 0.30 0.28 0.26 0.25 0.24 0.24 0.25 0.24 0.24 0.23 0.23 0.23 0.24 0.24 0.23 0.23 0.23 0.23 0.23 0.23 0.23 0.23 0.22 0.22 0.22 0.23 0.22 0.22 0.21 0.21 0.22 0.23 0.23 0.22 0.21 0.21 0.21 0.20 0.19 0.19 0.19 0.18 0.17 0.16 0.16 0.15 0.15 0.15 0.15 0.15 0.15 0.14 0.14 0.14 0.13 0.12 0.12 0.12 0.11 0.10 0.10 0.10 0.10 0.10 0.09 0.09 0.11
0.30 0.31 0.31 0.32 0.32 0.33 0.34 0.34 0.35 0.36 0.37 0.37 0.36 0.35 0.35 0.35 0.33 0.30 0.27 0.25 0.24 0.24 0.23 0.23 0.23 0.24 0.24 0.23 0.23 0.23 0.22 0.22 0.21 0.22 0.22 0.22 0.22 0.21 0.22 0.22 0.22 0.22 0.22 0.22 0.22 0.22 0.20 0.20 0.22 0.23 0.23 0.22 0.21 0.20 0.20 0.20 0.19 0.19 0.19 0.18 0.17 0.16 0.16 0.15 0.15 0.15 0.15 0.15 0.15 0.15 0.15 0.14 0.14 0.13 0.12 0.12 0.12 0.11 0.10 0.09 0.10 0.10 0.10 0.11 0.12
0.30 0.31 0.31 0.32 0.32 0.33 0.34 0.35 0.36 0.36 0.35 0.36 0.36 0.36 0.35 0.32 0.29 0.27 0.25 0.26 0.25 0.25 0.24 0.23 0.22 0.22 0.22 0.23 0.23 0.23 0.22 0.22 0.21 0.20 0.20 0.20 0.21 0.21 0.21 0.21 0.22 0.21 0.21 0.21 0.21 0.21 0.20 0.18 0.20 0.21 0.22 0.22 0.21 0.20 0.19 0.19 0.19 0.19 0.19 0.18 0.17 0.16 0.16 0.16 0.15 0.15 0.15 0.15 0.15 0.15 0.15 0.15 0.14 0.14 0.13 0.12 0.12 0.12 0.11 0.10 0.11 0.12 0.10 0.10 0.11
0.31 0.32 0.32 0.32 0.33 0.34 0.35 0.35 0.35 0.35 0.35 0.36 0.35 0.33 0.31 0.29 0.28 0.26 0.25 0.25 0.25 0.25 0.24 0.23 0.21 0.20 0.20 0.20 0.20 0.20 0.20 0.21 0.22 0.21 0.21 0.20 0.20 0.19 0.19 0.20 0.21 0.21 0.20 0.20 0.20 0.20 0.19 0.18 0.19 0.20 0.21 0.22 0.21 0.20 0.19 0.19 0.19 0.19 0.18 0.17 0.17 0.17 0.16 0.16 0.16 0.15 0.15 0.16 0.16 0.15 0.15 0.15 0.14 0.14 0.13 0.13 0.12 0.11 0.11 0.11 0.11 0.11 0.11 0.10 0.11
0.32 0.32 0.33 0.33 0.34 0.34 0.35 0.36 0.35 0.35 0.35 0.33 0.31 0.29 0.29 0.29 0.29 0.28 0.26 0.26 0.25 0.23 0.22 0.21 0.21 0.21 0.19 0.19 0.19 0.19 0.19 0.20 0.20 0.21 0.21 0.20 0.20 0.19 0.18 0.18 0.20 0.20 0.20 0.20 0.20 0.20 0.19 0.18 0.18 0.19 0.20 0.21 0.21 0.20 0.19 0.19 0.19 0.19 0.18 0.17 0.17 0.17 0.17 0.17 0.16 0.16 0.16 0.16 0.16 0.16 0.15 0.15 0.15 0.15 0.14 0.13 0.12 0.12 0.12 0.12 0.11 0.09 0.10 0.10 0.09
0.32 0.33 0.34 0.35 0.36 0.37 0.38 0.37 0.34 0.31 0.30 0.29 0.29 0.30 0.29 0.29 0.28 0.27 0.25 0.24 0.23 0.23 0.22 0.22 0.21 0.21 0.21 0.20 0.19 0.18 0.19 0.19 0.19 0.20 0.20 0.21 0.21 0.19 0.18 0.18 0.19 0.20 0.20 0.19 0.19 0.19 0.19 0.18 0.17 0.18 0.20 0.21 0.21 0.20 0.19 0.19 0.19 0.18 0.18 0.17 0.17 0.18 0.17 0.17 0.17 0.17 0.16 0.16 0.16 0.16 0.16 0.15 0.15 0.15 0.14 0.13 0.13 0.12 0.12 0.12 0.11 0.11 0.09 0.08 0.09
0.32 0.33 0.35 0.36 0.37 0.37 0.35 0.33 0.30 0.29 0.29 0.29 0.29 0.29 0.27 0.25 0.25 0.25 0.24 0.24 0.23 0.22 0.22 0.22 0.22 0.21 0.20 0.19 0.19 0.18 0.18 0.17 0.17 0.18 0.19 0.20 0.20 0.20 0.19 0.18 0.18 0.19 0.20 0.20 0.19 0.19 0.18 0.18 0.17 0.18 0.19 0.20 0.20 0.20 0.19 0.19 0.19 0.18 0.18 0.18 0.18 0.18 0.18 0.17 0.17 0.17 0.16 0.17 0.17 0.16 0.16 0.16 0.15 0.15 0.14 0.14 0.13 0.13 0.13 0.12 0.12 0.11 0.10 0.09 0.08
0.34 0.36 0.36 0.35 0.33 0.31 0.31 0.31 0.31 0.32 0.31 0.30 0.28 0.28 0.28 0.26 0.23 0.22 0.23 0.22 0.21 0.21 0.20 0.20 0.20 0.19 0.17 0.16 0.16 0.16 0.15 0.16 0.16 0.16 0.17 0.17 0.18 0.19 0.20 0.20 0.19 0.18 0.20 0.20 0.19 0.19 0.18 0.17 0.16 0.17 0.19 0.20 0.20 0.20 0.19 0.19 0.18 0.18 0.18 0.18 0.18 0.18 0.18 0.18 0.18 0.17 0.17 0.17 0.17 0.17 0.17 0.16 0.16 0.15 0.14 0.14 0.13 0.13 0.13 0.12 0.12 0.12 0.11 0.10 0.09
0.35 0.35 0.33 0.31 0.29 0.28 0.27 0.29 0.30 0.31 0.31 0.30 0.30 0.29 0.28 0.27 0.26 0.23 0.21 0.23 0.25 0.23 0.22 0.21 0.21 0.20 0.19 0.18 0.17 0.16 0.15 0.14 0.14 0.14 0.14 0.14 0.16 0.17 0.18 0.20 0.20 0.19 0.19 0.19 0.19 0.18 0.18 0.17 0.16 0.17 0.18 0.20 0.20 0.20 0.20 0.19 0.18 0.18 0.18 0.18 0.18 0.18 0.18 0.18 0.18 0.18 0.18 0.17 0.17 0.16 0.17 0.16 0.16 0.15 0.15 0.14 0.14 0.13 0.13 0.13 0.13 0.13 0.12 0.12 0.10
0.32 0.30 0.27 0.26 0.27 0.29 0.28 0.27 0.27 0.29 0.29 0.30 0.30 0.27 0.25 0.27 0.27 0.27 0.26 0.25 0.24 0.23 0.22 0.21 0.21 0.21 0.21 0.20 0.18 0.18 0.17 0.17 0.15 0.15 0.15 0.14 0.13 0.15 0.16 0.18 0.20 0.21 0.19 0.19 0.19 0.18 0.18 0.17 0.16 0.17 0.18 0.19 0.20 0.20 0.19 0.19 0.18 0.18 0.18 0.18 0.18 0.17 0.17 0.17 0.18 0.18 0.18 0.18 0.17 0.17 0.17 0.16 0.16 0.16 0.15 0.14 0.14 0.14 0.14 0.13 0.13 0.13 0.13 0.13 0.12
0.28 0.26 0.27 0.28 0.28 0.28 0.27 0.27 0.29 0.29 0.28 0.27 0.27 0.27 0.27 0.27 0.26 0.27 0.26 0.26 0.25 0.25 0.25 0.24 0.23 0.22 0.22 0.22 0.20 0.20 0.19 0.18 0.16 0.16 0.15 0.15 0.15 0.15 0.15 0.16 0.18 0.20 0.20 0.19 0.19 0.18 0.17 0.17 0.16 0.16 0.18 0.19 0.20 0.20 0.19 0.19 0.18 0.18 0.18 0.18 0.18 0.17 0.17 0.17 0.17 0.18 0.18 0.18 0.18 0.17 0.17 0.17 0.17 0.15 0.15 0.15 0.14 0.14 0.14 0.13 0.13 0.13 0.12 0.12 0.12
0.26 0.27 0.29 0.29 0.28 0.27 0.25 0.26 0.26 0.26 0.26 0.25 0.24 0.25 0.26 0.26 0.26 0.26 0.27 0.28 0.27 0.26 0.25 0.24 0.24 0.23 0.21 0.22 0.22 0.21 0.20 0.19 0.18 0.17 0.16 0.16 0.15 0.15 0.15 0.15 0.16 0.19 0.20 0.20 0.19 0.19 0.18 0.17 0.16 0.16 0.17 0.18 0.19 0.19 0.19 0.19 0.18 0.18 0.17 0.18 0.18 0.17 0.17 0.17 0.17 0.17 0.18 0.18 0.18 0.18 0.18 0.17 0.17 0.16 0.15 0.15 0.15 0.14 0.14 0.13 0.13 0.13 0.12 0.12 0.12
0.27 0.28 0.28 0.27 0.26 0.24 0.24 0.25 0.25 0.23 0.22 0.24 0.25 0.25 0.24 0.25 0.26 0.28 0.28 0.27 0.28 0.27 0.26 0.24 0.23 0.22 0.21 0.21 0.22 0.22 0.21 0.19 0.19 0.18 0.17 0.17 0.16 0.16 0.15 0.15 0.16 0.18 0.19 0.20 0.19 0.19 0.18 0.17 0.16 0.16 0.17 0.18 0.19 0.19 0.19 0.19 0.18 0.18 0.17 0.17 0.17 0.17 0.17 0.18 0.18 0.18 0.18 0.18 0.18 0.18 0.18 0.18 0.17 0.16 0.16 0.15 0.15 0.14 0.14 0.14 0.13 0.13 0.13 0.13 0.12
0.28 0.29 0.28 0.26 0.24 0.23 0.24 0.23 0.22 0.22 0.21 0.20 0.20 0.22 0.24 0.25 0.26 0.26 0.25 0.27 0.26 0.27 0.26 0.23 0.21 0.22 0.22 0.22 0.23 0.23 0.22 0.20 0.19 0.19 0.19 0.18 0.17 0.17 0.16 0.15 0.16 0.17 0.19 0.19 0.19 0.19 0.18 0.17 0.16 0.16 0.17 0.18 0.19 0.19 0.19 0.19 0.18 0.18 0.17 0.17 0.17 0.17 0.18 0.18 0.18 0.18 0.18 0.18 0.18 0.18 0.18 0.18 0.18 0.17 0.16 0.15 0.15 0.15 0.14 0.14 0.14 0.14 0.13 0.13 0.13
0.27 0.26 0.25 0.23 0.23 0.22 0.21 0.21 0.21 0.19 0.20 0.21 0.18 0.19 0.21 0.23 0.25 0.25 0.25 0.26 0.25 0.24 0.23 0.22 0.22 0.22 0.23 0.24 0.24 0.24 0.23 0.21 0.20 0.20 0.20 0.20 0.18 0.17 0.17 0.16 0.16 0.17 0.18 0.19 0.19 0.19 0.18 0.18 0.17 0.16 0.17 0.18 0.19 0.19 0.19 0.19 0.19 0.18 0.18 0.17 0.18 0.18 0.18 0.18 0.18 0.18 0.18 0.18 0.18 0.18 0.18 0.18 0.18 0.17 0.16 0.16 0.15 0.15 0.15 0.14 0.14 0.14 0.14 0.13 0.13
0.27 0.25 0.22 0.21 0.21 0.21 0.21 0.20 0.20 0.21 0.19 0.19 0.20 0.21 0.21 0.22 0.24 0.25 0.24 0.24 0.24 0.23 0.23 0.23 0.24 0.24 0.24 0.23 0.23 0.23 0.23 0.22 0.22 0.21 0.22 0.21 0.19 0.18 0.17 0.17 0.17 0.17 0.18 0.18 0.19 0.19 0.18 0.18 0.17 0.17 0.17 0.18 0.19 0.19 0.19 0.19 0.19 0.18 0.18 0.18 0.18 0.18 0.18 0.18 0.18 0.18 0.18 0.18 0.18 0.18 0.18 0.19 0.18 0.17 0.17 0.16 0.16 0.15 0.15 0.14 0.14 0.14 0.14 0.14 0.13
0.24 0.22 0.22 0.22 0.21 0.20 0.20 0.20 0.19 0.19 0.20 0.21 0.21 0.22 0.21 0.20 0.20 0.21 0.22 0.23 0.23 0.24 0.25 0.25 0.25 0.25 0.23 0.22 0.22 0.23 0.24 0.24 0.23 0.23 0.22 0.21 0.19 0.18 0.18 0.17 0.18 0.18 0.18 0.18 0.18 0.19 0.18 0.18 0.17 0.17 0.17 0.18 0.19 0.19 0.19 0.19 0.18 0.18 0.18 0.18 0.18 0.18 0.18 0.18 0.18 0.19 0.19 0.19 0.19 0.19 0.19 0.19 0.18 0.18 0.18 0.17 0.16 0.16 0.15 0.15 0.14 0.14 0.14 0.14 0.14
0.23 0.23 0.22 0.21 0.20 0.19 0.19 0.20 0.20 0.20 0.21 0.22 0.23 0.22 0.21 0.20 0.20 0.20 0.20 0.21 0.24 0.24 0.24 0.24 0.23 0.22 0.22 0.22 0.23 0.24 0.25 0.25 0.25 0.23 0.21 0.20 0.19 0.18 0.18 0.18 0.18 0.18 0.18 0.18 0.18 0.18 0.18 0.18 0.18 0.17 0.18 0.19 0.19 0.19 0.19 0.19 0.18 0.18 0.18 0.18 0.18 0.18 0.18 0.18 0.19 0.19 0.19 0.19 0.19 0.19 0.19 0.19 0.19 0.19 0.18 0.18 0.17 0.16 0.16 0.15 0.15 0.15 0.15 0.14 0.14
0.22 0.23 0.21 0.20 0.20 0.20 0.20 0.20 0.20 0.21 0.19 0.17 0.17 0.17 0.17 0.17 0.18 0.18 0.19 0.19 0.21 0.21 0.20 0.20 0.19 0.19 0.20 0.22 0.24 0.25 0.26 0.26 0.25 0.23 0.21 0.19 0.19 0.18 0.18 0.18 0.18 0.18 0.18 0.18 0.19 0.19 0.18 0.18 0.18 0.18 0.18 0.19 0.19 0.19 0.19 0.19 0.18 0.18 0.18 0.18 0.18 0.18 0.18 0.18 0.18 0.18 0.19 0.19 0.19 0.19 0.19 0.19 0.19 0.19 0.19 0.19 0.18 0.18 0.16 0.15 0.15 0.15 0.15 0.15 0.14
0.21 0.20 0.19 0.19 0.20 0.20 0.19 0.18 0.18 0.18 0.16 0.14 0.14 0.14 0.14 0.14 0.15 0.17 0.18 0.19 0.18 0.17 0.16 0.16 0.16 0.17 0.19 0.21 0.23 0.24 0.25 0.26 0.24 0.23 0.21 0.20 0.19 0.18 0.18 0.18 0.18 0.18 0.19 0.19 0.19 0.19 0.18 0.18 0.18 0.18 0.18 0.19 0.19 0.19 0.19 0.19 0.19 0.18 0.18 0.18 0.18 0.18 0.18 0.18 0.18 0.18 0.18 0.18 0.18 0.18 0.18 0.19 0.19 0.19 0.19 0.19 0.19 0.19 0.18 0.17 0.16 0.16 0.16 0.15 0.15
0.20 0.19 0.19 0.20 0.21 0.19 0.17 0.16 0.16 0.15 0.14 0.13 0.12 0.12 0.13 0.13 0.14 0.15 0.14 0.14 0.15 0.14 0.14 0.15 0.16 0.17 0.18 0.19 0.21 0.23 0.24 0.24 0.24 0.23 0.21 0.20 0.19 0.19 0.18 0.18 0.18 0.18 0.19 0.19 0.19 0.18 0.18 0.18 0.18 0.18 0.18 0.19 0.19 0.19 0.19 0.19 0.20 0.19 0.18 0.18 0.18 0.18 0.18 0.17 0.18 0.18 0.18 0.18 0.18 0.18 0.18 0.19 0.19 0.19 0.20 0.20 0.19 0.19 0.18 0.18 0.18 0.17 0.17 0.16 0.15
0.19 0.19 0.20 0.21 0.19 0.17 0.15 0.15 0.14 0.13 0.13 0.12 0.12 0.12 0.12 0.13 0.13 0.13 0.13 0.14 0.14 0.13 0.14 0.14 0.15 0.16 0.18 0.19 0.20 0.20 0.21 0.22 0.23 0.22 0.21 0.20 0.19 0.18 0.18 0.18 0.18 0.18 0.19 0.19 0.19 0.18 0.18 0.18 0.18 0.18 0.18 0.19 0.19 0.19 0.19 0.19 0.20 0.19 0.19 0.19 0.18 0.18 0.17 0.17 0.17 0.18 0.18 0.18 0.18 0.18 0.18 0.19 0.19 0.19 0.20 0.20 0.20 0.19 0.19 0.19 0.18 0.18 0.17 0.17 0.17
0.19 0.20 0.21 0.20 0.18 0.16 0.15 0.14 0.12 0.11 0.11 0.12 0.12 0.12 0.12 0.13 0.12 0.12 0.13 0.13 0.13 0.13 0.14 0.14 0.16 0.17 0.17 0.17 0.18 0.18 0.19 0.21 0.22 0.22 0.21 0.19 0.19 0.18 0.18 0.18 0.18 0.18 0.19 0.18 0.18 0.18 0.18 0.18 0.18 0.18 0.18 0.19 0.19 0.19 0.19 0.19 0.19 0.19 0.20 0.20 0.19 0.18 0.17 0.17 0.17 0.18 0.18 0.18 0.18 0.18 0.18 0.19 0.19 0.20 0.20 0.20 0.20 0.19 0.20 0.19 0.19 0.19 0.18 0.18 0.18
0.20 0.22 0.20 0.18 0.16 0.15 0.14 0.12 0.12 0.13 0.13 0.13 0.13 0.12 0.12 0.12 0.12 0.12 0.12 0.12 0.12 0.13 0.14 0.15 0.14 0.14 0.15 0.16 0.17 0.17 0.18 0.20 0.21 0.22 0.21 0.20 0.19 0.18 0.18 0.18 0.19 0.19 0.18 0.18 0.18 0.18 0.18 0.18 0.18 0.18 0.18 0.19 0.19 0.19 0.19 0.19 0.19 0.19 0.19 0.19 0.19 0.18 0.18 0.18 0.18 0.18 0.18 0.18 0.18 0.18 0.18 0.19 0.19 0.20 0.20 0.20 0.20 0.19 0.19 0.19 0.19 0.19 0.18 0.19 0.19
0.21 0.20 0.17 0.15 0.14 0.13 0.12 0.12 0.12 0.12 0.11 0.11 0.11 0.12 0.11 0.10 0.10 0.10 0.11 0.11 0.12 0.13 0.13 0.12 0.12 0.12 0.14 0.15 0.16 0.17 0.17 0.18 0.20 0.21 0.21 0.20 0.18 0.18 0.18 0.18 0.18 0.18 0.18 0.18 0.18 0.18 0.18 0.18 0.18 0.18 0.18 0.18 0.19 0.19 0.19 0.19 0.19 0.19 0.19 0.19 0.19 0.19 0.18 0.18 0.18 0.18 0.19 0.19 0.19 0.19 0.19 0.19 0.19 0.20 0.21 0.21 0.20 0.20 0.19 0.19 0.19 0.18 0.19 0.19 0.19
0.20 0.18 0.16 0.14 0.13 0.13 0.12 0.11 0.11 0.10 0.10 0.11 0.11 0.10 0.09 0.09 0.10 0.10 0.11 0.12 0.12 0.11 0.11 0.12 0.12 0.12 0.12 0.13 0.14 0.14 0.15 0.16 0.18 0.20 0.20 0.19 0.18 0.18 0.18 0.18 0.18 0.18 0.18 0.18 0.18 0.18 0.18 0.18 0.18 0.18 0.18 0.18 0.18 0.18 0.19 0.19 0.19 0.19 0.19 0.19 0.18 0.18 0.17 0.18 0.18 0.19 0.19 0.19 0.19 0.19 0.19 0.19 0.20 0.20 0.21 0.21 0.21 0.20 0.20 0.19 0.18 0.18 0.18 0.19 0.19
0.18 0.16 0.14 0.14 0.14 0.13 0.11 0.10 0.10 0.10 0.11 0.11 0.10 0.09 0.09 0.09 0.10 0.10 0.11 0.12 0.11 0.10 0.10 0.10 0.10 0.10 0.11 0.12 0.13 0.13 0.14 0.15 0.17 0.18 0.19 0.19 0.18 0.18 0.18 0.18 0.18 0.18 0.17 0.18 0.18 0.18 0.18 0.18 0.18 0.18 0.18 0.18 0.18 0.18 0.18 0.19 0.19 0.19 0.19 0.18 0.18 0.17 0.17 0.17 0.18 0.19 0.19 0.20 0.19 0.20 0.20 0.20 0.20 0.20 0.21 0.22 0.22 0.21 0.20 0.19 0.18 0.18 0.18 0.18 0.18
0.16 0.14 0.14 0.13 0.12 0.11 0.10 0.10 0.10 0.11 0.11 0.10 0.09 0.09 0.09 0.09 0.10 0.10 0.10 0.10 0.10 0.09 0.09 0.09 0.08 0.09 0.10 0.11 0.11 0.12 0.13 0.15 0.16 0.17 0.18 0.18 0.18 0.18 0.18 0.18 0.17 0.17 0.17 0.17 0.18 0.17 0.18 0.18 0.18 0.18 0.18 0.17 0.17 0.17 0.18 0.18 0.18 0.19 0.19 0.18 0.17 0.17 0.17 0.17 0.17 0.18 0.19 0.19 0.20 0.20 0.20 0.20 0.20 0.21 0.22 0.22 0.22 0.22 0.20 0.19 0.18 0.17 0.17 0.17 0.18
0.14 0.12 0.11 0.11 0.10 0.10 0.10 0.10 0.10 0.10 0.09 0.09 0.09 0.09 0.09 0.09 0.09 0.09 0.09 0.08 0.08 0.08 0.08 0.08 0.08 0.08 0.10 0.11 0.11 0.11 0.13 0.15 0.15 0.17 0.19 0.19 0.18 0.18 0.18 0.18 0.18 0.18 0.17 0.18 0.18 0.17 0.17 0.18 0.18 0.18 0.18 0.17 0.17 0.17 0.18 0.18 0.18 0.18 0.18 0.18 0.17 0.17 0.16 0.16 0.17 0.17 0.18 0.19 0.19 0.20 0.20 0.20 0.20 0.21 0.21 0.21 0.22 0.22 0.21 0.19 0.18 0.17 0.17 0.16 0.17
0.11 0.11 0.11 0.10 0.10 0.09 0.09 0.09 0.09 0.09 0.08 0.08 0.08 0.09 0.09 0.09 0.08 0.08 0.08 0.07 0.07 0.07 0.08 0.08 0.08 0.09 0.10 0.10 0.10 0.11 0.12 0.14 0.15 0.17 0.19 0.19 0.19 0.19 0.18 0.17 0.17 0.18 0.17 0.17 0.17 0.17 0.17 0.17 0.17 0.17 0.17 0.17 0.17 0.17 0.17 0.17 0.18 0.18 0.18 0.18 0.17 0.16 0.16 0.16 0.17 0.17 0.17 0.18 0.19 0.19 0.20 0.20 0.21 0.21 0.21 0.22 0.22 0.21 0.21 0.20 0.19 0.18 0.17 0.16 0.18
0.11 0.10 0.10 0.09 0.09 0.09 0.09 0.09 0.08 0.08 0.08 0.08 0.08 0.09 0.08 0.08 0.08 0.07 0.07 0.07 0.07 0.07 0.07 0.07 0.08 0.08 0.08 0.09 0.10 0.11 0.11 0.13 0.15 0.16 0.19 0.19 0.19 0.18 0.18 0.17 0.17 0.17 0.17 0.17 0.17 0.17 0.17 0.17 0.17 0.17 0.17 0.17 0.17 0.17 0.17 0.17 0.17 0.18 0.18 0.18 0.17 0.16 0.16 0.16 0.17 0.17 0.17 0.18 0.18 0.19 0.19 0.20 0.21 0.21 0.21 0.21 0.21 0.21 0.21 0.21 0.20 0.19 0.19 0.19 0.20
0.10 0.09 0.09 0.09 0.09 0.08 0.09 0.08 0.08 0.08 0.08 0.08 0.09 0.08 0.08 0.07 0.07 0.07 0.07 0.07 0.07 0.07 0.07 0.07 0.07 0.08 0.08 0.09 0.09 0.10 0.11 0.13 0.15 0.16 0.18 0.18 0.19 0.18 0.18 0.17 0.17 0.17 0.17 0.16 0.16 0.16 0.16 0.16 0.16 0.17 0.17 0.17 0.17 0.17 0.17 0.17 0.17 0.17 0.18 0.18 0.17 0.17 0.17 0.17 0.17 0.17 0.17 0.18 0.18 0.19 0.19 0.20 0.20 0.21 0.21 0.21 0.21 0.20 0.20 0.20 0.21 0.21 0.21 0.21 0.20
0.08 0.08 0.08 0.08 0.08 0.08 0.08 0.08 0.08 0.08 0.08 0.08 0.08 0.08 0.07 0.07 0.07 0.07 0.07 0.07 0.07 0.07 0.07 0.07 0.07 0.07 0.08 0.08 0.09 0.10 0.11 0.12 0.14 0.16 0.17 0.18 0.18 0.18 0.17 0.17 0.17 0.16 0.16 0.16 0.16 0.16 0.16 0.15 0.16 0.16 0.16 0.16 0.16 0.17 0.17 0.17 0.17 0.17 0.18 0.18 0.18 0.18 0.18 0.18 0.17 0.17 0.17 0.18 0.19 0.19 0.20 0.20 0.20 0.21 0.21 0.20 0.20 0.20 0.19 0.19 0.19 0.20 0.20 0.20 0.21
0.08 0.08 0.08 0.08 0.08 0.08 0.07 0.08 0.08 0.08 0.08 0.08 0.08 0.07 0.07 0.07 0.07 0.07 0.07 0.07 0.07 0.07 0.07 0.07 0.07 0.07 0.08 0.08 0.09 0.10 0.11 0.12 0.14 0.15 0.17 0.17 0.17 0.17 0.17 0.17 0.17 0.16 0.16 0.16 0.15 0.15 0.15 0.15 0.15 0.15 0.16 0.16 0.16 0.16 0.17 0.17 0.17 0.17 0.18 0.18 0.18 0.18 0.18 0.18 0.18 0.18 0.18 0.18 0.19 0.19 0.19 0.19 0.19 0.20 0.20 0.19 0.19 0.19 0.19 0.19 0.19 0.19 0.20 0.20 0.20
0.08 0.08 0.08 0.08 0.08 0.07 0.07 0.07 0.08 0.08 0.08 0.08 0.08 0.07 0.07 0.07 0.07 0.07 0.07 0.07 0.06 0.06 0.06 0.06 0.07 0.07 0.07 0.08 0.09 0.10 0.10 0.11 0.13 0.15 0.16 0.17 0.17 0.17 0.16 0.16 0.16 0.16 0.16 0.15 0.15 0.15 0.15 0.15 0.15 0.15 0.15 0.15 0.16 0.16 0.17 0.17 0.17 0.17 0.18 0.18 0.18 0.18 0.18 0.18 0.17 0.18 0.18 0.18 0.18 0.18 0.18 0.18 0.18 0.19 0.18 0.19 0.18 0.18 0.19 0.20 0.20 0.20 0.20 0.20 0.20
0.08 0.08 0.08 0.08 0.08 0.07 0.07 0.07 0.07 0.08 0.08 0.08 0.08 0.07 0.07 0.07 0.07 0.07 0.07 0.07 0.06 0.06 0.06 0.06 0.06 0.07 0.07 0.08 0.08 0.09 0.10 0.11 0.12 0.14 0.15 0.16 0.17 0.16 0.16 0.16 0.16 0.15 0.15 0.15 0.15 0.15 0.15 0.15 0.15 0.15 0.15 0.15 0.16 0.16 0.16 0.17 0.17 0.18 0.18 0.18 0.18 0.18 0.18 0.18 0.18 0.18 0.18 0.18 0.18 0.18 0.18 0.18 0.18 0.18 0.19 0.19 0.19 0.19 0.19 0.19 0.19 0.19 0.19 0.19 0.19
0.07 0.07 0.08 0.07 0.07 0.07 0.07 0.07 0.07 0.07 0.08 0.08 0.07 0.07 0.07 0.07 0.07 0.07 0.07 0.07 0.06 0.06 0.06 0.06 0.06 0.07 0.07 0.08 0.08 0.09 0.09 0.10 0.11 0.14 0.15 0.16 0.16 0.16 0.16 0.15 0.15 0.15 0.15 0.15 0.15 0.14 0.14 0.14 0.14 0.15 0.15 0.15 0.15 0.16 0.16 0.17 0.17 0.17 0.18 0.18 0.18 0.18 0.18 0.18 0.18 0.19 0.18 0.18 0.18 0.19 0.19 0.19 0.19 0.19 0.19 0.18 0.18 0.18 0.18 0.18 0.18 0.18 0.18 0.18 0.18
0.08 0.08 0.08 0.07 0.07 0.07 0.07 0.07 0.07 0.07 0.07 0.08 0.07 0.07 0.07 0.07 0.07 0.07 0.07 0.06 0.06 0.06 0.06 0.06 0.06 0.07 0.07 0.08 0.08 0.09 0.09 0.10 0.11 0.12 0.14 0.15 0.16 0.16 0.15 0.15 0.15 0.15 0.15 0.14 0.14 0.14 0.14 0.14 0.14 0.15 0.15 0.15 0.15 0.15 0.16 0.16 0.17 0.17 0.17 0.17 0.17 0.17 0.17 0.17 0.17 0.17 0.18 0.18 0.18 0.18 0.18 0.17 0.17 0.17 0.17 0.16 0.16 0.16 0.16 0.16 0.16 0.17 0.17 0.17 0.17
0.07 0.07 0.07 0.07 0.07 0.07 0.07 0.07 0.07 0.07 0.07 0.07 0.07 0.07 0.07 0.07 0.07 0.07 0.06 0.06 0.06 0.06 0.06 0.06 0.07 0.07 0.07 0.08 0.08 0.08 0.09 0.09 0.10 0.12 0.13 0.14 0.15 0.15 0.15 0.15 0.16 0.16 0.15 0.15 0.14 0.14 0.15 0.15 0.15 0.15 0.15 0.14 0.15 0.15 0.16 0.17 0.17 0.17 0.16 0.16 0.16 0.16 0.16 0.16 0.16 0.17 0.17 0.17 0.16 0.16 0.15 0.15 0.15 0.15 0.15 0.15 0.15 0.15 0.15 0.15 0.15 0.15 0.16 0.16 0.16
0.07 0.07 0.07 0.07 0.07 0.07 0.07 0.07 0.07 0.07 0.07 0.07 0.07 0.07 0.07 0.07 0.07 0.07 0.06 0.06 0.06 0.06 0.06 0.06 0.06 0.07 0.07 0.08 0.08 0.08 0.09 0.09 0.10 0.11 0.12 0.13 0.15 0.16 0.16 0.15 0.15 0.16 0.16 0.16 0.16 0.15 0.15 0.15 0.15 0.15 0.15 0.15 0.15 0.15 0.16 0.17 0.17 0.17 0.16 0.16 0.16 0.16 0.16 0.16 0.16 0.17 0.17 0.15 0.15 0.14 0.14 0.14 0.14 0.14 0.14 0.14 0.14 0.14 0.14 0.14 0.14 0.15 0.15 0.15 0.15
0.07 0.07 0.07 0.07 0.07 0.07 0.07 0.06 0.07 0.07 0.07 0.07 0.06 0.06 0.06 0.06 0.06 0.06 0.06 0.06 0.06 0.06 0.06 0.06 0.06 0.07 0.07 0.08 0.08 0.08 0.09 0.09 0.10 0.10 0.11 0.12 0.13 0.15 0.16 0.16 0.16 0.16 0.16 0.16 0.16 0.16 0.16 0.16 0.15 0.15 0.15 0.16 0.17 0.17 0.17 0.16 0.16 0.16 0.17 0.17 0.17 0.17 0.17 0.16 0.17 0.16 0.16 0.15 0.14 0.13 0.13 0.13 0.13 0.13 0.13 0.13 0.13 0.13 0.13 0.13 0.13 0.14 0.14 0.15 0.15
Wind_Speed
17 18 18 19 20 21 23 25 26 28 29 30 31 32 33 34 35 36 37 38 38 39 40 40 41 42 42 43 43 43 43 43 44 44 44 44 44 44 44 44 43 43 43 43 43 43 43 43 43 42 42 42 41 41 41 41 40 40 40 40 40 40 40 40 39 39 38 37 36 36 36 36 36 35 34 33 33 34 35 36 38 41 46 51 53
18 18 19 20 21 23 25 27 28 29 31 32 33 34 34 35 36 37 38 38 39 39 40 41 42 43 44 44 45 45 45 45 45 45 45 45 45 45 45 45 44 44 43 43 43 43 43 43 43 42 42 42 41 41 41 41 41 40 40 40 40 39 39 39 39 38 37 36 35 35 35 34 33 33 32 31 31 32 33 34 36 39 44 50 53
18 19 20 22 24 25 27 28 29 30 32 33 34 34 35 36 37 38 38 39 39 40 41 42 43 44 44 45 46 46 46 46 46 46 46 46 46 46 46 46 45 45 44 44 44 43 43 43 43 43 42 42 41 41 41 41 41 40 40 40 40 39 39 39 39 37 37 36 34 33 33 32 32 32 30 29 30 31 32 33 34 37 42 47 52
18 20 22 24 26 27 28 29 30 31 32 33 35 36 36 37 38 39 39 40 40 41 42 43 44 44 45 46 46 47 47 47 48 48 48 48 47 47 47 47 46 45 45 44 44 44 43 43 43 43 43 42 41 41 41 41 40 40 40 40 39 39 39 39 38 37 36 35 33 32 32 31 31 30 29 30 31 31 31 31 33 35 39 44 49
19 22 24 26 27 29 30 31 32 32 33 35 36 37 38 39 40 41 41 41 42 42 43 44 44 45 46 46 47 47 48 48 49 49 49 49 49 48 48 48 47 46 46 45 45 44 44 43 43 43 43 42 42 41 41 41 40 40 40 39 39 39 39 39 38 37 36 35 33 32 31 30 30 30 30 31 30 30 30 30 31 34 37 42 46
21 24 26 27 29 30 31 32 33 34 35 36 38 39 40 41 42 42 42 43 43 44 44 45 45 45 46 46 47 47 48 48 49 50 50 50 50 50 49 48 48 47 47 46 45 45 44 44 44 43 43 43 42 42 41 41 40 40 40 39 39 39 39 39 38 37 36 35 34 33 32 31 31 31 30 30 29 30 30 30 30 32 35 39 43
23 26 28 29 30 31 32 33 34 35 37 39 40 41 42 43 44 44 44 44 45 45 45 46 46 46 47 47 48 48 48 49 49 50 50 50 50 50 50 49 49 48 48 47 46 45 45 44 44 44 44 43 43 42 42 41 41 40 40 40 39 39 39 38 38 37 36 35 34 33 33 33 32 31 30 30 30 29 30 30 30 31 33 37 41
25 27 29 31 32 33 34 35 36 37 39 40 41 43 44 45 46 46 46 46 46 46 46 46 47 47 47 48 48 49 49 50 50 50 50 50 50 50 50 50 50 50 49 48 47 46 45 44 44 44 44 44 43 43 42 42 41 41 40 40 39 39 38 38 37 36 35 35 33 33 33 32 32 31 30 30 29 29 29 30 30 30 31 35 40
27 29 31 33 34 35 36 37 38 39 40 42 43 45 46 47 48 48 48 47 47 47 47 47 48 48 48 48 49 49 50 50 51 51 51 51 51 51 51 51 51 51 51 49 48 47 46 45 45 44 44 44 44 44 43 42 42 41 41 40 40 39 39 38 37 37 36 35 33 33 32 32 31 30 30 30 30 29 29 29 29 29 30 32 37
29 31 33 34 35 36 37 38 39 40 42 44 45 47 48 49 49 49 49 49 48 48 48 48 48 48 48 49 50 50 51 51 51 52 52 52 52 52 52 53 53 52 52 51 49 48 47 46 45 45 44 44 44 44 44 43 42 42 41 41 40 40 39 38 37 37 36 35 34 33 32 32 31 29 29 29 29 29 29 29 29 29 29 31 34
31 33 34 35 37 38 39 40 41 42 43 45 47 49 50 50 50 50 50 50 50 49 49 48 48 48 49 49 50 51 52 52 53 53 53 53 53 53 53 54 53 53 53 52 51 50 48 47 46 45 45 44 44 45 44 44 43 42 42 41 41 40 39 38 38 37 36 35 34 34 33 32 31 29 28 28 28 28 28 28 28 28 29 30 33
33 35 36 37 38 39 40 41 42 43 45 47 49 50 51 51 51 50 50 50 50 50 50 49 49 49 50 50 52 52 53 53 54 54 54 54 54 54 54 54 54 54 53 53 52 51 50 49 47 46 45 45 45 45 45 44 43 42 42 41 41 40 39 38 38 37 36 35 34 34 33 33 32 31 29 28 28 28 28 28 28 28 29 30 31
35 37 38 39 40 41 42 43 44 45 47 49 50 51 51 51 51 51 51 51 51 51 51 51 51 51 51 52 53 53 54 54 55 56 56 55 55 55 55 54 54 54 54 54 54 52 51 50 48 47 46 45 45 45 44 44 43 42 41 41 40 39 39 38 38 37 36 35 35 34 33 33 32 31 30 29 28 28 27 27 27 27 28 29 30
37 38 39 40 42 43 44 45 45 47 48 50 51 51 51 51 51 51 52 52 52 52 52 53 53 53 53 54 54 54 55 55 55 56 57 56 56 56 56 55 55 55 55 55 55 53 52 51 49 48 47 45 45 44 44 44 43 42 41 40 40 39 39 38 38 37 37 36 35 34 34 33 32 31 31 30 29 28 27 27 27 26 27 28 29
38 39 41 43 44 46 46 46 46 48 49 51 52 52 52 52 52 52 53 54 54 54 54 54 54 54 54 55 55 55 55 55 56 56 57 57 57 57 57 56 57 57 56 56 55 54 53 51 50 48 47 46 45 44 43 43 42 42 41 40 39 38 38 38 38 37 37 36 35 35 34 33 32 31 31 30 29 28 28 27 26 26 26 26 27
39 41 43 45 46 47 47 47 47 49 50 52 52 52 52 53 53 53 54 55 54 54 54 54 54 54 54 55 56 56 56 57 57 57 57 58 59 59 58 57 58 58 57 56 55 55 53 52 50 49 47 46 44 43 43 42 42 41 41 40 39 38 38 38 38 37 37 36 35 35 34 33 32 31 31 31 30 29 28 27 27 26 26 25 26
41 43 44 46 47 48 47 48 50 51 52 53 53 53 53 53 54 55 55 55 54 54 54 54 54 55 55 56 56 57 57 58 59 59 59 59 59 60 59 59 58 58 57 57 56 55 54 52 50 48 47 46 45 43 42 42 41 41 41 40 39 38 37 37 37 37 36 36 35 35 34 33 32 31 31 31 30 29 28 28 27 26 26 25 25
42 44 46 47 48 49 48 50 52 54 54 55 55 54 54 54 55 56 56 55 55 54 54 54 55 55 56 56 57 58 58 59 60 61 60 60 60 60 60 60 59 58 58 57 55 54 53 52 50 48 47 45 44 43 42 42 41 41 40 39 38 38 37 37 37 37 36 36 35 35 35 34 33 32 31 31 30 29 29 28 28 27 26 26 25
44 46 47 48 49 49 50 51 54 54 55 55 56 55 55 56 56 56 56 55 55 54 54 54 55 56 57 57 58 59 60 60 61 61 61 61 61 60 60 60 59 58 58 56 55 53 52 51 49 48 46 45 44 43 42 41 40 40 39 38 37 37 37 37 37 36 36 35 35 35 35 34 33 32 31 31 30 29 29 28 28 27 26 26 25
46 48 49 49 49 49 51 53 54 54 54 55 56 56 56 57 57 57 57 56 56 56 56 56 57 58 59 59 60 60 61 61 62 61 61 61 61 60 60 59 58 57 56 55 54 52 51 50 49 47 45 44 43 42 41 40 40 39 38 37 37 37 37 37 36 36 36 35 35 35 35 34 33 32 32 31 30 29 29 28 28 27 26 26 25
49 50 49 49 49 51 53 54 53 54 55 55 56 56 57 57 57 58 58 57 57 57 58 59 59 60 61 62 61 61 61 61 61 60 60 60 60 59 58 57 56 56 55 53 52 51 50 49 48 46 45 43 42 41 41 40 39 39 38 37 36 36 36 36 36 35 35 35 35 35 35 34 33 33 32 31 30 29 29 28 28 28 27 26 25
50 50 48 49 51 53 54 53 53 54 56 57 57 56 56 57 57 57 57 57 58 59 60 60 61 61 62 63 62 61 61 61 60 59 58 58 58 58 56 55 54 54 53 51 50 49 48 47 47 45 44 42 41 40 40 39 39 38 37 36 36 36 36 35 35 35 35 34 35 35 34 34 33 33 32 31 31 30 29 28 28 27 27 26 26
49 48 49 50 52 53 54 54 55 56 56 57 57 57 57 58 58 57 57 58 58 58 59 61 62 62 63 63 62 62 61 61 59 58 57 57 57 56 54 52 52 52 51 49 48 47 46 45 45 44 42 41 40 40 39 38 38 37 36 36 36 35 35 34 34 34 34 34 34 34 34 34 33 32 32 32 31 30 29 28 28 26 26 26 25
48 48 50 51 52 53 54 54 55 57 57 56 56 57 58 58 58 57 58 58 58 58 59 61 62 62 62 62 62 62 61 60 58 57 57 57 55 54 52 50 49 48 47 46 45 45 44 43 43 42 41 40 39 39 38 38 37 36 36 35 35 35 34 34 34 33 34 34 33 33 34 33 33 32 32 32 31 30 29 28 27 26 26 25 25
49 49 50 51 52 53 54 55 56 57 57 57 56 56 56 57 57 57 57 58 58 58 60 60 60 61 62 62 62 61 60 59 57 56 57 56 54 52 50 47 46 44 44 43 43 43 43 42 41 40 40 39 38 38 37 37 36 35 35 35 35 35 33 33 32 32 33 33 33 33 33 33 33 32 32 31 31 30 29 28 27 26 25 25 24
49 50 51 51 52 54 55 57 57 57 57 57 57 56 56 56 57 56 57 59 59 58 59 59 60 61 61 62 61 60 59 57 55 55 55 54 53 51 48 45 43 42 41 40 40 40 40 40 39 38 38 37 37 36 36 36 35 34 34 34 34 33 33 32 32 32 32 32 32 33 33 33 32 32 31 31 30 30 29 28 27 26 25 24 24
50 51 52 53 54 56 57 57 56 56 57 57 57 56 57 57 57 57 58 59 58 58 58 59 60 61 61 61 60 59 57 55 54 55 54 53 52 49 46 43 41 39 38 37 37 37 38 38 37 36 36 36 35 35 35 34 34 33 33 33 33 32 32 32 32 32 32 32 32 33 33 32 32 31 31 30 30 29 28 28 27 26 25 25 24
51 52 53 54 55 56 57 57 56 56 57 57 57 56 56 57 58 58 58 58 58 58 59 59 59 60 59 59 58 57 54 53 54 54 53 52 50 47 44 42 39 37 35 34 34 35 36 36 35 35 34 34 34 34 34 33 33 32 32 32 32 32 31 31 31 31 31 31 32 32 32 32 31 31 31 30 29 28 27 27 26 26 25 25 24
53 54 54 55 56 56 56 57 57 57 57 58 57 56 56 57 57 57 57 57 58 58 58 58 58 58 57 57 56 54 53 53 53 52 51 50 49 45 43 40 38 35 33 32 32 33 34 34 33 33 33 33 33 33 33 32 32 31 31 32 32 31 31 31 31 31 30 31 31 32 32 32 31 31 31 30 29 28 27 26 25 25 25 24 24
53 54 55 55 55 56 57 57 57 58 58 58 57 57 57 57 57 57 57 57 57 57 57 56 56 56 55 56 55 53 52 52 51 50 50 49 47 44 41 39 37 33 31 30 30 31 32 32 31 31 31 31 32 32 32 32 31 31 31 31 31 30 30 30 30 30 30 30 31 31 32 32 31 31 31 30 29 28 27 26 25 25 25 24 23
54 54 55 55 55 56 56 57 58 58 57 57 57 57 57 57 57 57 57 57 56 55 55 55 55 55 55 54 53 52 51 51 50 50 49 48 46 43 40 38 34 31 29 28 28 29 30 30 30 30 30 30 31 31 31 31 31 31 30 30 29 29 29 29 29 29 29 29 30 30 30 31 31 31 30 30 29 28 28 27 27 26 25 24 24
55 55 55 56 56 56 57 57 57 57 57 57 57 57 57 57 57 57 56 55 54 54 54 54 54 54 53 53 52 51 51 51 50 49 48 47 45 42 39 36 33 30 28 27 27 28 28 28 29 29 30 30 30 30 30 30 30 30 30 29 28 28 28 28 28 28 28 28 29 30 30 29 30 30 30 29 28 28 28 28 27 27 26 26 24
55 55 56 56 57 57 58 57 57 57 57 57 57 57 57 57 57 56 55 54 53 53 53 53 53 53 53 53 53 52 51 50 50 49 48 46 44 40 37 34 31 29 27 26 26 27 27 28 28 29 29 28 28 28 29 29 29 29 29 29 28 28 28 28 27 27 27 28 29 29 29 29 29 30 29 28 28 27 27 27 27 27 27 27 26
54 55 56 57 58 58 57 57 57 57 57 57 56 56 56 57 56 55 54 53 53 53 53 53 54 55 55 54 53 51 49 49 49 49 46 44 42 39 36 33 30 27 26 25 25 26 27 27 28 28 27 27 27 27 28 29 29 28 29 28 27 28 28 28 27 27 27 28 28 28 28 28 29 29 28 28 27 27 26 26 26 26 26 26 26
55 56 58 58 58 57 57 57 56 56 57 56 55 55 56 57 55 54 53 53 53 53 53 54 55 55 54 53 52 50 49 49 50 49 45 43 41 38 35 32 28 26 25 25 25 25 26 27 27 27 26 26 26 26 27 28 28 28 28 27 27 27 27 27 27 27 27 28 28 28 28 28 28 28 28 27 27 26 25 25 25 26 25 25 25
56 58 58 57 57 56 57 57 56 56 56 55 55 56 57 56 54 53 53 53 53 53 54 54 54 53 53 52 51 51 51 51 50 49 45 42 40 37 33 30 27 25 24 24 24 25 26 26 27 27 26 26 26 26 27 27 27 27 27 26 26 26 26 26 26 27 27 27 28 28 28 28 28 27 27 27 27 26 24 24 24 24 24 24 25
58 58 57 56 56 56 56 56 56 55 54 54 56 57 56 55 53 52 52 52 52 52 52 53 54 55 54 53 53 53 53 52 50 49 45 41 39 36 32 28 26 24 23 23 23 24 25 26 26 26 26 26 25 26 26 27 26 26 26 26 26 25 25 25 25 26 26 26 27 27 27 28 28 27 26 27 27 26 24 23 23 23 23 23 24
58 57 56 56 55 55 55 55 55 54 54 55 56 56 54 53 52 52 52 53 53 53 54 56 57 57 55 54 54 53 52 51 49 48 44 40 37 34 30 27 25 23 23 22 23 23 24 25 25 25 25 25 24 25 26 26 26 26 26 25 25 25 24 25 25 25 26 26 27 28 28 28 27 27 26 26 26 26 25 23 23 22 22 23 23
56 56 55 55 54 54 54 54 53 53 55 56 55 54 53 52 51 51 53 54 55 56 57 58 58 56 54 53 53 51 49 48 47 46 43 39 35 32 28 25 24 22 22 22 22 23 23 24 24 25 24 24 23 24 25 25 26 26 26 25 25 24 24 24 24 25 25 26 27 28 29 29 28 27 27 26 26 26 25 24 23 23 22 23 23
55 55 54 53 53 53 53 53 53 54 55 54 53 52 51 51 51 53 54 56 57 58 58 57 57 55 53 52 51 50 48 46 45 44 41 37 33 30 26 24 23 22 21 21 21 22 23 23 23 23 23 23 23 23 24 24 25 25 26 25 24 23 23 23 24 24 24 25 26 26 27 29 29 28 27 26 26 26 25 24 24 24 23 23 23
54 53 53 52 51 52 52 52 53 54 54 53 52 51 50 52 53 55 55 56 57 57 56 56 55 54 53 52 50 48 47 45 43 42 39 34 31 28 25 23 22 21 20 20 20 21 22 22 22 22 22 22 22 22 23 23 24 25 25 25 23 23 23 23 23 24 24 24 25 25 26 27 28 28 28 27 26 26 25 25 25 25 24 24 24
52 52 51 51 51 51 52 52 52 53 52 51 51 50 51 53 55 55 55 56 56 56 56 55 55 54 53 51 49 47 45 43 41 39 37 33 30 27 24 22 21 20 20 19 20 20 21 21 21 21 20 21 22 22 22 22 23 24 24 24 23 22 23 22 23 23 23 24 24 25 25 26 26 27 27 26 25 25 25 25 25 26 26 26 25
52 52 51 51 50 50 51 51 51 51 51 50 50 51 53 54 54 55 55 55 56 56 56 55 55 54 53 51 49 46 43 41 39 37 35 32 28 25 23 21 20 19 18 18 19 19 20 20 20 20 19 20 20 21 21 21 22 22 23 23 23 22 23 22 22 23 23 23 23 23 23 24 25 25 25 25 25 25 25 25 26 27 27 27 26
51 50 50 50 50 50 50 51 51 51 50 49 50 52 54 54 54 55 55 56 56 56 56 55 55 54 52 50 47 44 41 39 37 35 33 30 26 23 22 20 19 18 17 17 18 19 19 20 19 19 19 19 19 20 20 20 21 21 22 23 23 22 22 22 22 22 22 22 22 22 22 23 24 24 25 25 25 26 26 25 26 26 26 26 26
49 49 49 49 49 50 51 51 51 50 49 49 51 53 54 54 55 55 56 56 57 56 56 55 55 53 51 48 46 43 40 38 35 33 32 28 24 22 21 19 18 17 17 17 17 18 18 18 18 18 18 18 18 18 18 18 19 20 21 22 22 22 22 22 22 22 22 22 22 22 23 23 24 25 25 25 25 25 25 24 24 24 24 24 24
48 48 48 49 49 50 51 51 51 50 49 50 52 53 54 55 55 56 56 56 57 57 56 55 54 52 50 47 44 41 38 36 34 31 30 27 23 21 20 18 17 17 16 16 17 17 17 17 17 16 16 16 16 16 16 17 17 18 19 20 21 21 21 22 23 23 23 22 22 22 22 23 23 23 23 23 23 23 23 23 23 23 23 23 23
48 49 49 49 49 50 51 51 51 50 50 52 53 53 54 55 56 56 56 57 57 57 56 55 53 51 48 45 43 40 37 35 32 30 28 26 23 20 19 17 17 16 16 16 16 16 16 16 15 15 15 15 15 15 15 16 16 16 16 17 19 20 20 20 20 21 21 21 20 21 21 21 21 21 21 22 22 22 22 23 23 23 23 23 23
48 49 49 49 50 51 51 51 51 51 51 52 53 53 54 55 56 56 57 57 57 57 56 54 52 49 46 43 41 38 36 33 31 29 27 25 22 20 18 17 16 16 15 15 15 15 14 14 14 13 13 13 14 14 15 15 15 16 16 16 17 18 18 18 19 19 19 19 19 20 20 20 21 21 21 22 22 22 22 22 23 23 23 23 23
49 49 49 50 51 52 52 52 52 52 52 53 53 54 55 56 56 56 57 57 57 56 54 52 49 46 44 42 40 37 34 32 30 28 26 24 22 19 18 17 16 15 15 15 14 13 13 12 12 12 12 12 12 13 14 14 14 15 16 16 17 17 18 19 19 19 19 19 20 20 21 21 22 22 22 22 22 22 22 23 23 23 23 23 24
49 49 50 50 51 52 52 52 52 52 53 54 54 54 55 55 56 56 56 56 56 54 52 50 47 44 43 41 39 36 33 30 28 26 25 24 21 19 18 17 16 15 14 15 15 13 12 12 12 12 12 12 12 12 13 13 14 14 14 15 16 16 17 18 19 20 20 20 20 20 21 21 21 21 22 22 21 21 22 22 23 23 23 23 23
50 50 50 51 52 52 52 52 52 53 54 54 54 54 55 55 55 55 55 55 54 52 50 48 46 44 42 41 38 35 32 29 26 25 24 23 21 18 17 16 16 15 14 15 15 14 13 13 13 13 13 13 12 12 13 13 13 14 14 15 16 16 17 18 19 19 19 19 20 20 20 20 20 21 21 21 21 21 21 21 21 22 22 23 23
Wind_Direction
304 305 306 307 309 310 311 312 313 312 312 312 311 310 310 309 308 307 306 305 303 302 301 299 298 297 296 295 294 294 294 293 293 292 291 291 291 292 292 293 293 293 293 292 292 292 292 292 292 292 291 291 291 291 290 289 288 288 289 290 291 292 294 295 294 293 291 289 286 284 282 281 279 277 276 274 270 267 265 263 257 248 240 234 233
305 307 309 310 311 310 311 312 313 313 313 313 312 311 311 310 309 308 307 306 304 303 302 300 299 297 296 295 294 294 294 293 293 292 291 291 291 291 292 292 292 292 292 292 292 292 291 291 291 291 290 290 290 290 289 288 288 288 288 289 290 291 293 293 293 292 290 288 286 285 283 281 278 275 274 273 271 268 266 264 260 251 242 236 234
307 310 312 313 313 312 312 312 312 313 313 313 313 313 312 311 310 309 308 306 305 303 302 301 300 298 296 296 295 294 294 293 293 292 291 291 291 290 291 291 291 291 291 291 291 291 291 291 290 290 289 289 289 289 288 287 287 287 287 288 289 290 291 291 291 290 289 288 285 283 282 281 279 276 273 272 272 271 268 266 262 254 244 238 235
308 310 311 313 313 313 312 312 312 312 313 313 314 314 313 312 311 310 308 307 305 304 303 302 300 299 297 296 295 294 294 293 293 292 291 291 290 290 290 290 290 290 290 290 290 290 290 290 289 289 288 288 288 288 287 287 286 286 286 287 287 289 290 290 290 288 286 286 284 281 281 279 277 276 276 275 274 273 270 268 265 257 247 240 236
308 309 310 311 312 312 312 313 313 312 312 313 314 314 314 313 312 311 309 308 306 305 304 303 302 300 299 297 296 295 294 293 292 292 291 290 290 290 289 288 288 288 288 289 289 289 289 289 288 288 287 287 286 286 286 286 285 285 285 285 286 287 288 289 288 286 284 283 281 279 279 277 276 278 279 277 274 273 271 270 267 261 251 242 237
307 308 309 311 312 312 312 312 312 312 312 313 314 314 314 314 313 312 311 309 307 306 305 304 303 302 300 298 297 296 295 293 292 291 291 290 290 289 288 287 287 287 287 287 288 288 288 287 287 286 286 285 285 285 285 285 284 283 283 284 284 285 286 287 286 285 283 281 278 277 276 275 275 277 278 276 275 274 273 272 270 264 254 244 239
307 308 310 311 311 311 311 311 311 312 312 313 314 315 315 315 314 313 311 309 308 307 306 304 303 302 300 299 298 296 295 294 293 292 291 290 289 289 288 286 286 286 286 286 286 286 287 286 286 285 285 284 284 284 283 283 283 283 282 282 283 284 285 285 284 283 282 280 277 275 274 273 274 274 275 276 276 275 273 272 271 268 259 248 241
306 308 309 311 311 311 311 311 311 311 312 313 314 314 315 315 314 313 312 310 309 308 306 305 303 302 301 300 298 297 296 295 294 292 291 290 289 288 287 286 285 285 285 285 285 285 285 285 285 284 283 283 282 282 282 282 282 281 281 281 282 283 283 283 282 281 280 278 275 273 272 272 271 271 272 274 274 275 274 273 272 269 262 252 243
307 309 310 310 309 309 309 310 310 311 312 313 313 314 314 314 313 313 312 311 310 308 307 306 304 303 302 300 299 298 297 296 295 293 291 289 288 287 286 286 285 284 284 283 283 283 283 284 283 283 282 281 281 281 281 280 280 280 280 280 280 281 282 281 280 279 277 276 274 272 271 270 270 270 271 271 272 274 275 273 272 270 265 256 247
307 309 309 308 308 308 309 309 310 311 312 313 313 313 314 314 313 312 312 312 311 310 308 306 305 303 302 301 300 299 298 297 295 294 291 289 288 287 286 285 284 284 283 283 282 282 282 282 282 282 281 280 280 280 279 279 278 278 278 278 279 280 280 280 278 277 276 274 271 270 269 268 268 268 269 269 270 272 273 274 273 271 266 259 251
307 309 308 307 308 308 309 310 310 311 311 312 313 313 314 314 312 311 311 311 311 310 309 307 306 304 303 302 301 300 299 298 296 294 292 290 288 287 286 285 284 283 283 282 281 280 280 280 280 280 280 279 279 278 278 278 277 277 277 277 277 278 278 278 276 275 274 272 270 268 268 267 266 266 267 268 269 271 273 274 274 273 268 262 255
309 309 308 308 308 308 309 310 310 310 311 312 313 313 313 313 313 311 311 311 310 310 309 307 306 305 304 303 301 301 300 298 297 295 293 291 289 288 286 285 284 282 281 281 280 279 279 279 279 279 279 278 278 277 277 276 276 276 276 276 276 276 276 275 274 273 271 270 268 266 266 265 265 265 266 267 268 270 273 274 274 275 271 265 258
310 309 308 309 309 309 310 310 311 311 312 313 313 313 313 313 312 311 311 311 311 310 309 307 306 306 305 304 303 302 300 299 297 296 294 292 290 288 286 285 283 282 280 279 279 278 277 278 277 277 278 278 277 276 276 275 275 274 274 274 274 274 274 273 272 271 269 268 266 265 264 263 263 264 265 266 267 269 271 273 274 275 272 267 261
310 310 310 310 310 311 311 311 311 312 312 313 313 313 312 312 312 311 311 311 311 311 310 309 307 305 304 304 303 302 301 300 298 296 295 293 290 288 286 284 283 282 280 279 277 276 276 276 276 276 276 276 275 275 275 274 273 273 273 273 273 273 272 271 270 269 268 266 264 263 262 262 262 262 263 264 265 267 269 271 273 275 273 269 262
311 311 311 311 312 312 312 312 312 312 313 313 313 313 312 312 312 311 311 311 311 311 311 310 309 307 305 304 303 303 302 301 299 297 296 293 291 289 286 284 283 282 280 278 277 275 274 274 274 274 274 274 274 274 274 273 272 272 272 271 271 271 270 269 268 267 266 264 262 261 260 260 260 260 262 263 264 265 267 269 271 274 274 270 264
312 312 313 313 313 313 313 312 312 312 313 313 313 313 313 312 312 311 311 311 312 311 311 310 309 308 307 306 304 303 302 301 300 299 297 294 292 290 287 285 284 282 280 278 276 274 272 272 272 272 272 273 273 273 272 272 271 271 270 270 270 269 269 267 266 265 264 262 260 259 258 259 259 259 260 262 263 264 266 267 269 272 273 272 266
314 314 314 314 315 314 313 313 313 313 313 314 314 313 313 313 313 313 312 312 312 312 311 311 310 309 308 307 306 305 303 302 301 299 298 295 293 290 287 286 284 282 280 277 275 273 271 270 270 270 270 271 272 272 271 271 270 270 269 269 268 267 267 266 265 264 262 260 259 258 257 257 257 258 259 261 262 263 264 265 266 269 271 272 269
314 314 315 315 315 315 314 313 314 315 315 315 315 314 314 314 314 314 312 311 312 312 312 311 311 311 310 309 308 307 306 305 303 301 298 296 294 291 288 286 285 282 280 277 274 272 269 268 267 268 268 269 270 271 270 269 269 269 268 267 267 266 266 265 263 262 260 259 257 256 255 255 256 256 258 259 261 262 263 264 265 267 269 270 269
314 315 315 315 315 315 315 314 314 315 315 315 315 315 314 313 314 314 313 312 312 312 313 312 312 312 311 311 310 310 308 307 305 303 300 297 296 293 289 286 285 283 280 276 273 270 268 266 265 266 266 267 268 269 269 268 268 267 267 266 265 265 264 263 262 261 259 257 255 254 253 253 254 254 256 258 259 261 262 263 263 265 267 269 269
316 316 316 316 316 316 316 315 314 315 315 315 315 314 314 314 313 314 314 313 313 312 313 313 313 312 311 311 310 310 309 308 306 305 302 299 298 295 290 286 284 282 280 276 272 269 267 265 263 263 264 265 267 268 268 267 266 266 266 265 264 263 263 262 261 260 258 255 254 253 252 252 252 253 255 257 258 259 261 262 262 263 264 266 267
317 317 316 316 316 316 316 315 315 315 315 315 315 315 315 314 314 314 314 314 313 313 313 313 313 313 312 311 310 310 309 309 308 306 304 302 299 297 292 288 284 282 279 276 272 268 265 263 261 261 262 264 265 266 267 266 265 265 264 264 263 262 261 260 260 258 256 254 252 251 251 250 251 251 253 255 256 258 260 261 261 262 262 264 265
317 316 316 316 316 316 316 317 316 316 316 317 316 316 316 315 315 314 314 314 314 313 313 313 313 314 313 313 312 311 311 311 310 309 307 305 302 299 295 290 285 281 278 275 271 267 263 261 259 259 260 262 263 265 265 265 264 263 263 262 262 261 260 259 258 256 254 252 251 250 249 249 249 250 251 254 255 256 258 259 260 261 261 262 264
316 317 317 316 316 317 317 317 317 317 317 317 317 317 316 316 315 315 314 315 314 313 313 314 314 314 314 314 313 313 313 312 312 311 309 308 305 302 297 292 287 282 277 274 270 265 261 259 257 257 258 260 262 263 264 263 263 262 261 261 260 260 259 258 256 255 252 251 249 249 248 248 248 248 250 252 253 254 256 258 258 259 259 261 262
317 317 316 316 317 318 318 318 318 318 318 317 317 317 317 316 316 315 315 315 315 314 313 313 314 314 314 314 314 313 313 313 312 312 311 309 308 305 300 295 290 283 276 272 269 264 260 257 255 255 257 258 260 262 262 262 262 261 260 260 259 259 258 257 255 253 251 250 248 247 247 246 246 247 248 250 252 252 254 256 257 258 258 260 262
317 317 316 317 318 318 319 319 319 318 318 318 318 318 317 317 317 317 316 316 316 315 314 314 315 315 315 315 315 314 313 313 313 313 312 311 310 307 303 298 292 285 277 272 268 263 258 255 253 254 255 257 259 260 261 262 261 260 259 258 258 258 257 256 255 252 250 249 247 246 245 245 245 245 247 249 250 251 252 254 255 256 257 259 261
317 317 317 318 319 319 319 319 319 319 319 319 319 319 319 318 318 317 317 317 316 316 315 315 316 316 316 316 316 314 313 313 313 314 313 313 312 309 305 300 294 287 278 271 267 262 257 253 251 253 254 256 258 259 260 261 260 259 258 257 257 257 256 255 253 251 249 248 246 244 244 243 243 244 246 247 249 249 251 252 253 254 255 257 259
317 318 318 319 319 319 320 319 319 319 319 319 319 319 319 319 318 318 318 318 317 317 317 317 317 317 317 316 316 315 313 313 314 314 314 314 313 311 306 301 296 288 279 272 266 261 256 252 250 252 254 256 257 258 259 260 259 258 257 256 256 255 255 253 251 249 248 246 244 243 242 242 242 243 244 246 248 248 249 250 251 252 253 255 258
317 318 319 319 319 319 320 320 320 320 320 320 320 319 319 319 319 319 319 319 319 319 319 319 318 317 317 317 316 315 315 314 315 315 315 316 314 311 307 302 296 289 280 272 266 260 255 251 249 251 254 255 256 257 258 259 257 256 255 254 254 254 253 252 250 248 247 245 244 243 242 242 241 242 244 245 246 247 247 248 248 250 252 254 256
318 318 319 319 319 320 320 320 320 320 320 320 320 319 320 320 320 320 320 320 320 320 320 319 319 318 318 317 317 317 316 315 315 315 316 317 315 311 307 303 297 289 281 272 265 259 254 250 249 251 254 255 256 257 258 257 255 254 253 253 253 253 252 250 249 248 247 245 244 243 242 241 240 241 242 244 244 244 244 246 247 248 250 252 255
318 318 318 319 319 320 320 320 320 320 320 320 320 320 320 320 320 321 321 321 321 320 320 319 319 319 319 319 318 318 317 316 316 317 317 317 315 312 308 303 297 289 281 272 264 258 252 249 248 251 253 255 256 257 257 255 253 253 253 252 252 253 251 249 248 247 246 245 243 242 241 240 239 240 241 241 241 241 243 245 246 247 248 250 253
318 318 318 319 319 319 320 320 320 320 320 320 320 320 320 320 321 321 321 321 321 320 320 320 320 320 320 320 320 319 318 318 317 317 317 317 315 311 307 303 296 288 280 271 264 257 251 248 249 251 254 255 257 257 255 254 252 251 252 252 253 252 250 248 247 246 246 244 242 241 239 238 238 239 239 239 239 240 242 244 245 245 247 248 250
318 318 319 319 319 319 320 320 319 320 320 320 320 320 320 321 321 321 321 321 321 321 321 321 321 322 322 322 322 321 320 319 318 318 317 317 314 311 307 302 295 287 279 270 263 255 251 249 251 252 254 256 256 255 254 253 252 251 250 251 251 250 248 247 246 245 244 243 242 240 239 238 237 237 237 238 239 240 242 244 245 245 246 247 248
318 318 319 319 319 319 319 319 320 320 320 320 320 320 321 321 321 321 321 321 321 321 321 322 323 324 323 323 322 321 320 320 320 318 317 317 314 310 306 302 294 286 278 269 261 254 251 251 252 253 255 256 256 254 253 252 252 251 250 249 249 247 246 245 245 244 243 242 241 240 238 237 236 236 236 237 238 240 242 243 245 245 245 246 247
318 318 319 319 319 319 319 319 320 320 320 320 320 320 320 321 320 320 320 320 320 321 321 322 323 323 322 321 321 320 320 321 322 319 317 316 314 310 306 301 293 284 276 268 260 254 253 253 253 254 256 257 255 253 252 251 252 251 249 248 246 245 245 245 244 243 242 241 239 238 237 236 235 234 234 236 237 239 242 243 245 245 245 245 247
318 318 318 319 319 319 319 319 319 319 319 319 320 320 320 320 320 320 320 320 321 321 322 322 323 323 323 322 321 321 321 322 323 321 317 315 314 310 305 300 293 283 276 268 260 255 254 254 255 255 256 256 255 252 251 252 252 251 249 247 245 244 244 245 244 242 241 240 239 237 236 236 235 233 233 234 236 238 241 243 245 244 244 244 246
318 319 319 319 319 319 319 319 319 319 319 319 320 320 320 320 320 320 320 321 322 322 323 323 323 323 323 322 321 321 321 322 322 321 317 315 313 310 304 299 292 283 276 268 261 256 255 255 256 256 256 255 254 252 251 251 251 251 249 246 244 244 244 243 243 242 240 239 238 236 235 235 234 233 232 233 235 238 240 242 243 243 243 244 246
318 318 319 319 319 319 319 319 319 319 319 320 320 320 320 320 320 321 321 322 323 323 323 323 323 322 320 319 318 318 318 319 320 320 317 314 312 309 304 297 290 282 274 268 261 258 256 256 257 257 256 255 254 252 251 251 251 250 247 244 242 242 243 241 241 240 239 238 236 235 234 234 233 232 232 233 235 236 238 240 242 242 243 244 246
318 319 319 318 318 318 319 319 319 319 320 320 321 321 320 320 321 322 323 323 323 322 322 322 321 320 319 318 318 317 316 317 318 318 315 312 310 308 303 295 288 281 273 267 262 259 258 258 258 257 256 255 254 253 251 250 251 249 246 243 242 241 241 240 239 238 237 237 236 234 233 232 232 231 232 233 234 235 237 239 240 241 242 243 246
319 319 319 318 318 319 319 319 319 319 320 321 321 321 321 321 322 322 322 323 323 322 322 322 322 321 320 319 319 318 316 316 317 318 315 312 309 307 301 294 287 280 273 267 262 259 258 259 259 258 256 254 254 253 251 251 250 247 244 242 240 239 239 238 237 237 237 237 236 235 233 232 231 231 232 233 234 235 237 239 240 240 241 243 247
320 319 319 319 319 319 320 320 320 320 321 321 321 321 321 322 322 322 322 322 322 322 322 323 323 322 321 320 320 319 317 316 317 318 315 312 309 306 300 293 286 280 273 266 262 260 259 260 260 259 257 254 252 252 252 251 249 245 241 239 238 237 237 236 236 235 235 235 235 234 233 231 230 231 232 233 234 235 237 239 240 241 242 244 248
320 320 320 320 319 320 320 320 320 321 321 322 322 321 322 322 322 322 323 323 323 323 323 323 323 323 322 321 320 319 317 317 317 318 315 312 308 305 299 293 286 279 272 266 262 261 260 260 260 259 257 254 252 252 253 251 247 243 239 236 236 235 235 235 235 234 234 233 233 233 232 231 230 231 232 233 233 235 237 239 241 242 243 245 248
321 321 321 320 320 320 320 320 321 322 322 322 322 322 322 323 323 323 324 324 324 324 324 324 324 323 323 322 320 319 318 317 318 318 315 312 308 304 298 292 286 278 271 265 262 261 262 261 260 259 256 254 252 251 252 250 246 241 236 234 234 234 233 233 234 233 233 232 232 232 230 229 229 230 231 231 232 235 238 240 241 243 244 246 248
322 322 322 321 321 321 322 322 322 323 323 322 323 323 323 323 323 324 324 324 325 325 325 325 324 324 323 322 320 319 318 317 317 317 316 313 308 303 297 292 285 278 270 266 263 262 262 261 260 258 256 254 252 251 250 248 244 239 235 233 232 232 231 232 233 233 232 232 231 230 229 228 229 229 230 231 234 237 240 242 243 245 246 248 248
322 323 323 323 322 322 323 323 323 324 323 323 323 323 323 324 324 324 325 325 325 325 325 325 324 324 323 321 320 319 318 317 316 316 316 314 308 303 298 292 284 277 270 266 264 263 262 261 259 257 256 255 252 249 247 245 241 238 235 232 230 231 231 231 231 232 232 232 231 230 228 228 229 230 232 234 237 239 242 243 244 245 246 247 248
323 323 323 324 323 323 324 324 325 325 324 323 324 325 324 325 325 325 325 325 325 325 325 324 324 324 323 321 320 319 317 316 315 315 316 313 307 303 298 291 283 277 271 267 265 263 262 260 258 257 256 255 252 247 244 241 239 236 234 230 228 230 231 230 231 232 232 231 230 230 229 230 231 233 235 236 239 240 241 241 241 242 243 244 245
324 324 324 324 324 324 325 325 326 326 324 324 326 326 325 325 325 326 326 325 325 325 325 325 324 324 323 321 320 318 316 315 313 313 314 312 306 301 297 290 282 277 271 268 266 263 261 259 257 256 256 254 249 243 239 237 235 233 232 229 227 228 230 232 232 232 231 231 230 230 230 231 231 232 233 235 237 238 239 240 240 241 242 243 243
325 325 325 325 325 326 326 326 326 326 325 325 326 327 326 326 326 326 326 326 326 325 325 325 325 324 323 322 320 317 315 314 312 311 312 311 304 299 295 288 281 276 270 267 265 262 260 257 255 254 253 250 245 239 235 234 232 229 229 228 228 229 231 233 233 231 230 229 228 227 228 228 229 230 232 234 236 238 240 241 241 242 242 243 243
325 325 325 325 326 326 326 326 327 326 325 326 327 327 327 327 327 327 327 326 326 326 326 326 325 325 324 322 320 317 314 313 311 309 310 309 303 296 292 287 280 274 269 267 265 262 258 254 252 251 249 245 241 237 234 232 230 228 229 229 229 230 231 231 230 230 229 228 226 227 228 230 232 233 235 237 239 240 241 242 242 243 244 244 244
325 326 326 325 326 327 327 327 327 326 326 326 327 327 327 328 328 327 327 327 327 327 327 326 326 326 325 323 321 318 314 312 310 308 307 307 301 294 289 285 280 274 269 265 262 258 254 250 247 245 242 240 239 236 233 231 231 231 231 232 232 233 233 232 232 232 231 230 230 231 233 234 235 236 238 239 241 242 243 244 245 246 246 245 245
325 326 326 325 326 326 327 327 327 327 327 327 327 327 328 328 328 328 328 328 328 328 328 328 327 327 326 324 321 318 315 312 309 307 306 305 300 293 286 282 278 273 266 261 256 252 248 245 243 240 238 238 240 238 233 232 232 232 232 233 235 235 234 234 233 233 232 232 233 234 235 236 237 238 239 241 242 244 245 246 246 246 246 245 245
325 326 326 326 326 327 327 327 327 327 327 328 328 328 329 329 329 329 329 329 330 329 329 329 329 328 326 324 322 320 316 313 310 307 306 305 301 294 286 279 274 270 264 258 252 247 244 242 239 236 236 238 241 239 236 234 233 233 234 237 238 237 236 234 232 231 231 233 234 235 236 237 238 239 240 241 243 244 246 246 246 245 245 244 244